Grissom AFB, IN

4:50 AM EST on February 25, 2017 (GMT -0500)
Grissom Air Reserve Base

Weather History for KGUS - December, 2012

Change the Weather History Date:

Tuesday, December 4, 2012

  Actual Average Record
Temperature  
Mean Temperature 50 °F -  
Max Temperature 61 °F 40 °F 64 °F (1998)
Min Temperature 38 °F 28 °F 10 °F (2006)
Degree Days  
Heating Degree Days 14    
Moisture  
Dew Point 47 °F    
Average Humidity 89    
Maximum Humidity 100    
Minimum Humidity 73    
Precipitation  
Precipitation 0.07 in - - ()
Sea Level Pressure  
Sea Level Pressure 30.06 in    
Wind  
Wind Speed 13 mph (WNW)    
Max Wind Speed 17 mph    
Max Gust Speed 23 mph    
Visibility 10 miles    
Events Rain    
Averages and records for this station are not official NWS values.
T = Trace of Precipitation, MM = Missing Value Source: NWS Daily Summary

Daily Weather History Graph

Daily Weather History Graph

Search for Another Location

Airport or City:

Trip Planner

Search our weather history database for the weather conditions in past years. The results will help you decide how hot, cold, wet, or windy it might be!

Date:

Astronomy

Dec. 04, 2012 Rise Set
Actual Time 7:52 AM EST 5:17 PM EST
Civil Twilight 7:21 AM EST 5:47 PM EST
Nautical Twilight 6:47 AM EST 6:22 PM EST
Astronomical Twilight 6:14 AM EST 6:55 PM EST
Moon 11:05 PM EST (12/4) 11:45 AM EST (12/4)
Length of Visible Light 10h 25m
Length of Day
9h 24m
Waning Gibbous, 69% of the Moon is Illuminated
Dec 4
Waning Gibbous
Dec 6
Last Quarter
Dec 13
New
Dec 20
First Quarter
Dec 28
Full

Hourly Weather History & Observations

Time (EST) Temp. Windchill Dew Point Humidity Pressure Visibility Wind Dir Wind Speed Gust Speed Precip Events Conditions
12:55 AM 61.3 °F - 54.5 °F 78% 29.96 in 10.0 mi SSW 15.0 mph - N/A   Scattered Clouds
1:55 AM 61.9 °F - 53.2 °F 73% 29.96 in 10.0 mi SSW 17.3 mph - N/A   Mostly Cloudy
2:55 AM 61.5 °F - 52.9 °F 73% 29.96 in 10.0 mi SSW 17.3 mph - N/A   Mostly Cloudy
3:55 AM 60.4 °F - 52.3 °F 75% 29.96 in 10.0 mi SSW 13.8 mph - N/A   Scattered Clouds
4:55 AM 60.3 °F - 52.9 °F 77% 29.95 in 10.0 mi SSW 13.8 mph - N/A   Mostly Cloudy
5:11 AM 60.8 °F - 53.6 °F 77% 29.95 in 10.0 mi SW 13.8 mph - N/A   Overcast
5:55 AM 60.4 °F - 53.6 °F 78% 29.96 in 10.0 mi SW 15.0 mph 23.0 mph N/A   Overcast
6:55 AM 59.2 °F - 55.0 °F 86% 29.98 in 10.0 mi SW 12.7 mph - N/A   Overcast
7:17 AM 59.0 °F - 55.4 °F 88% 29.99 in 9.0 mi West 16.1 mph 20.7 mph N/A   Light Drizzle
7:32 AM 51.8 °F - 51.8 °F 100% 30.01 in 5.0 mi NNW 16.1 mph 21.9 mph N/A   Overcast
7:55 AM 49.8 °F - 49.8 °F 100% 30.02 in 10.0 mi North 16.1 mph 23.0 mph 0.01 in   Overcast
8:10 AM 50.0 °F - 50.0 °F 100% 30.02 in 10.0 mi NW 11.5 mph - N/A   Overcast
8:16 AM 50.0 °F - 48.2 °F 94% 30.03 in 10.0 mi NNW 12.7 mph - N/A Rain Light Rain
8:55 AM 48.2 °F - 47.3 °F 97% 30.04 in 6.0 mi North 11.5 mph - 0.00 in   Light Drizzle
9:10 AM 48.2 °F - 46.4 °F 93% 30.05 in 9.0 mi North 11.5 mph - N/A   Overcast
9:23 AM 48.2 °F - 48.2 °F 100% 30.05 in 10.0 mi NNW 12.7 mph - N/A   Light Drizzle
9:44 AM 46.4 °F 40.4 °F 44.6 °F 93% 30.07 in 10.0 mi North 13.8 mph - N/A Rain Light Rain
9:48 AM 46.4 °F 40.1 °F 44.6 °F 93% 30.07 in 10.0 mi North 15.0 mph - N/A Rain Light Rain
9:55 AM 45.7 °F 40.2 °F 44.2 °F 95% 30.08 in 10.0 mi North 11.5 mph - 0.01 in Rain Light Rain
10:30 AM 46.4 °F 41.9 °F 44.6 °F 93% 30.07 in 10.0 mi North 9.2 mph - N/A Rain Light Rain
10:55 AM 45.9 °F 41.7 °F 45.0 °F 97% 30.09 in 10.0 mi North 8.1 mph - 0.04 in Rain Light Rain
11:46 AM 46.4 °F 44.3 °F 44.6 °F 93% 30.09 in 10.0 mi North 4.6 mph - N/A   Light Drizzle
11:55 AM 46.6 °F - 44.1 °F 91% 30.09 in 10.0 mi NNW 4.6 mph - 0.01 in   Light Drizzle
12:55 PM 47.1 °F - 43.7 °F 88% 30.08 in 10.0 mi NW 6.9 mph - 0.00 in Rain Light Rain
1:55 PM 47.7 °F - 44.2 °F 88% 30.09 in 10.0 mi Variable 5.8 mph - 0.00 in Rain Light Rain
2:01 PM 48.2 °F - 44.6 °F 87% 30.08 in 10.0 mi WNW 4.6 mph - N/A   Overcast
2:55 PM 49.6 °F - 44.2 °F 82% 30.08 in 10.0 mi WNW 9.2 mph - 0.00 in   Overcast
3:55 PM 50.9 °F - 45.7 °F 82% 30.09 in 10.0 mi WNW 6.9 mph - N/A   Overcast
4:55 PM 48.6 °F - 46.0 °F 91% 30.12 in 10.0 mi West 4.6 mph - N/A   Clear
5:55 PM 45.3 °F 41.6 °F 43.7 °F 94% 30.15 in 10.0 mi WSW 6.9 mph - N/A   Clear
6:55 PM 43.5 °F 38.3 °F 41.2 °F 91% 30.16 in 10.0 mi West 9.2 mph - N/A   Clear
7:55 PM 42.6 °F 37.8 °F 39.9 °F 90% 30.17 in 10.0 mi WSW 8.1 mph - N/A   Clear
8:55 PM 42.1 °F 36.6 °F 38.7 °F 88% 30.19 in 10.0 mi WSW 9.2 mph - N/A   Clear
9:55 PM 41.0 °F 35.2 °F 37.9 °F 89% 30.19 in 10.0 mi WSW 9.2 mph - N/A   Clear
10:55 PM 40.5 °F 34.6 °F 37.6 °F 89% 30.22 in 10.0 mi WSW 9.2 mph - N/A   Clear
11:55 PM 38.3 °F 31.9 °F 36.3 °F 93% 30.22 in 10.0 mi West 9.2 mph - N/A   Clear